NIMBUS 2 DEB

基本信息
目录编号:
26670
目录名称:
NIMBUS 2 DEB
国际标识:
1966-040K
轨道中心:
EARTH
物体状态:
在轨
发射日期:
1966-05-15 UTC
轨道信息
数据来源: 国际轨道数据
星历时间: 2026-07-13T19:54:49+0800
半长轴: 7274.041km
偏心率: 0.0035373
轨道倾角: 100.293°
近地点辐角: 6.566°
升交点赤经: 34.515°
平近点角: 60.466°
近地点: 870.173km
远地点: 921.635km
周期: 102.902分钟
每日圈数: 13.993914
详细信息
发射场:
AFWTR
轨道高度:
LEO
数据来源:
AOE Integration Group
参考系:
TEME
时间系统:
UTC
历元类型:
SGP4
2D轨道图
3D轨道图
轨道高度分析图
轨道倾角分析图
轨道综合分析图
查看轨道综合分析图